Regional Weather Roundup
Issued by NWS Portland, ME

Current Version | Previous Version | Text Only | Print | Product List | Glossary On
Versions: 1 2 3 4 5 6 7 8 9 10 11 12 13 14 15 16 17 18 19 20 21 22 23 24 25 26 27 28 29 30 31 32 33 34 35 36 37 38 39 40 41 42 43 44 45 46 47 48 49 50
000 ASUS41 KGYX 031710 RWRGYX WEATHER ROUNDUP FOR MAINE AND NEW HAMPSHIRE NATIONAL WEATHER SERVICE GRAY ME 100 PM EDT THU SEP 03 2015 MEZ002-005-006-010-012-015-018-020-021-024-026-027-029-031800- MAINE CITY SKY/WX TMP DP RH WIND PRES REMARKS PORTLAND MOSUNNY 85 68 56 SE7 29.85F SANFORD MOSUNNY 88 64 45 CALM 29.86F BAR HARBOR PTSUNNY 82 68 61 N7 29.84S WISCASSET PTSUNNY 85 67 54 NE5 29.85F ROCKLAND MOSUNNY 82 70 65 E6 29.82F FRYEBURG PTSUNNY 85 70 60 VRB5 29.87F LEWISTONAUBURN PTSUNNY 86 N/A N/A CALM 29.86F AUGUSTA PTSUNNY 83 67 58 NE8 29.86F WATERVILLE PTSUNNY 81 66 61 N5 29.83S BANGOR PTSUNNY 83 62 49 N8 29.85F GREENVILLE N/A 77 61 57 NW9 29.89F MILLINOCKET MOSUNNY 82 56 40 NW10 29.87S HOULTON SUNNY 77 50 38 N13 29.86R PRESQUE ISLE SUNNY 72 46 40 NW12 29.89S FRENCHVILLE SUNNY 65 46 50 N8G25 29.92R CARIBOU SUNNY 70 47 43 MISG 29.89S $$ NHZ002-005-008-009-011-012-014-031800- NEW HAMPSHIRE CITY SKY/WX TMP DP RH WIND PRES REMARKS PORTSMOUTH PTSUNNY 86 67 52 W5 29.84F ROCHESTER SUNNY 86 67 52 VRB3 29.86F NASHUA SUNNY 88 66 48 VRB3 29.86F HX 90 MANCHESTER MOSUNNY 88 64 44 VRB7 29.84F CONCORD MOSUNNY 86 68 54 VRB7 29.86F LACONIA MOSUNNY 84 66 54 N8 29.85F PLYMOUTH FAIR 83 66 55 NW8 29.88S BERLIN CLOUDY 73 68 84 CALM 29.93R WHITEFIELD LGT RAIN 73 63 70 NE9G21 29.93R JAFFREY SUNNY 83 65 54 CALM 29.91F KEENE SUNNY 82 64 54 CALM 29.88F LEBANON MOSUNNY 86 68 54 VRB5 29.88F MT WASHINGTON FOG 55 55 100 NW23 N/A VSB 1/16 $$ VTZ005-007-008-031800- VERMONT CITY SKY/WX TMP DP RH WIND PRES REMARKS ST JOHNSBURY N/A 80 66 62 MISG 29.88F MONTPELIER MOSUNNY 79 66 64 NW9 29.97F BURLINGTON PTSUNNY 81 68 64 N7 29.92S $$ MAZ007-012-024-CTZ003-RIZ002-NYZ038-NYZ072-031800- SOUTHERN NEW ENGLAND AND NY CITY SKY/WX TMP DP RH WIND PRES REMARKS BOSTON MOSUNNY 79 66 64 SE8 29.86S WORCESTER SUNNY 84 62 47 MISG 29.90F NANTUCKET N/A N/A N/A N/A MISG 29.86 PROVIDENCE MOSUNNY 86 67 52 VRB5 29.84F HARTFORD MOSUNNY 86 68 54 NW7 29.86F ALBANY PTSUNNY 85 69 58 E5 29.88F NEW YORK CITY MOSUNNY 88 65 46 VRB6 29.85F HX 90 $$ ANZ081-ANZ082-ANZ150-NHZ014-MEZ023>029-031800- COASTAL MARINE OBSERVATIONS STATION/POSITION TIME TEMP WIND PRES WAVE AIR SEA DIR/SP/G HT/PER (UTC) (F) (DEG/KT/KT) (MB) (FT/S) MOUNT DESERT ROC 1700 66 270/ 6/ 6 1010.7F MATINICUS ROCK 1700 CALM 1010.6F ISLE OF SHOALS 1700 75 100/ 3/ 4 1010.6F JEFFREYS LEDGE 1603 69 N/A 1/14 CASHES LEDGE BUO 1650 69 1010.7R 1/ 4 GEORGES BANK BUO 1650 72 71 210/ 6/ 8 1011.5F 2/ 8 $$ .............KEY.............. WCI - WIND CHILL TC - TEMPERATURE IN CELSIUS VSB - VISIBILITY IN MILES HX - HEAT INDEX FAIR- INDICATES FEW OR NO CLOUDS BELOW 12,000 FT, WITH NO SIGNIFICANT WEATHER AND/OR OBSTRUCTIONS TO VISIBILITY.

USA.gov is the U.S. government's official web portal to all federal, state and local government web resources and services.